TimeAKDT,TemperatureF,Dew PointF,Humidity,Sea Level PressureIn,VisibilityMPH,Wind Direction,Wind SpeedMPH,Gust SpeedMPH,PrecipitationIn,Events,Conditions,WindDirDegrees,DateUTC
12:16 AM,51.8,46.4,82,29.98,10.0,Calm,Calm,-,N/A,,Overcast,0,2013-08-09 08:16:00
12:36 AM,48.2,46.4,93,29.98,10.0,East,3.5,-,N/A,,Overcast,100,2013-08-09 08:36:00
12:56 AM,50.0,46.4,87,29.98,10.0,Calm,Calm,-,N/A,,Overcast,0,2013-08-09 08:56:00
1:16 AM,50.0,46.4,87,29.98,9.0,Calm,Calm,-,N/A,,Overcast,0,2013-08-09 09:16:00
1:36 AM,46.4,44.6,93,29.98,10.0,East,4.6,-,N/A,,Overcast,90,2013-08-09 09:36:00
1:56 AM,48.2,44.6,87,29.97,10.0,Calm,Calm,-,N/A,,Overcast,0,2013-08-09 09:56:00
2:16 AM,48.2,46.4,93,29.98,10.0,Calm,Calm,-,N/A,,Overcast,0,2013-08-09 10:16:00
2:36 AM,46.4,44.6,93,29.97,10.0,Calm,Calm,-,N/A,,Overcast,0,2013-08-09 10:36:00
2:56 AM,48.2,46.4,93,29.98,10.0,Calm,Calm,-,N/A,,Overcast,0,2013-08-09 10:56:00
3:16 AM,48.2,44.6,87,29.97,10.0,East,3.5,-,N/A,,Overcast,90,2013-08-09 11:16:00
3:36 AM,48.2,46.4,93,29.97,10.0,Calm,Calm,-,N/A,,Overcast,0,2013-08-09 11:36:00
3:56 AM,48.2,44.6,87,29.97,10.0,East,4.6,-,N/A,,Overcast,80,2013-08-09 11:56:00
4:16 AM,46.4,44.6,93,29.97,10.0,Calm,Calm,-,N/A,,Overcast,0,2013-08-09 12:16:00
4:36 AM,46.4,44.6,93,29.96,10.0,East,3.5,-,N/A,,Overcast,90,2013-08-09 12:36:00
4:56 AM,48.2,46.4,93,29.96,10.0,Calm,Calm,-,0.01,,Overcast,0,2013-08-09 12:56:00
5:16 AM,48.2,46.4,93,29.96,10.0,Calm,Calm,-,N/A,,Overcast,0,2013-08-09 13:16:00
5:36 AM,48.2,46.4,93,29.96,10.0,SE,3.5,-,0.01,,Overcast,140,2013-08-09 13:36:00
5:56 AM,50.0,48.2,94,29.97,9.0,Calm,Calm,-,0.02,,Overcast,0,2013-08-09 13:56:00
6:16 AM,50.0,46.4,87,29.96,5.0,Calm,Calm,-,0.02,,Overcast,0,2013-08-09 14:16:00
6:36 AM,48.2,46.4,93,29.97,5.0,Calm,Calm,-,0.03,,Overcast,0,2013-08-09 14:36:00
6:56 AM,50.0,48.2,94,29.96,5.0,East,4.6,-,0.04,,Overcast,100,2013-08-09 14:56:00
7:16 AM,48.2,46.4,93,29.96,5.0,Calm,Calm,-,0.01,,Overcast,0,2013-08-09 15:16:00
7:36 AM,48.2,46.4,93,29.96,5.0,Calm,Calm,-,0.02,,Overcast,0,2013-08-09 15:36:00
7:56 AM,48.2,46.4,93,29.95,4.0,Calm,Calm,-,0.03,,Overcast,0,2013-08-09 15:56:00
8:16 AM,48.2,46.4,93,29.96,4.0,Calm,Calm,-,0.01,,Overcast,0,2013-08-09 16:16:00
8:36 AM,48.2,46.4,93,29.96,4.0,Calm,Calm,-,0.02,,Overcast,0,2013-08-09 16:36:00
8:56 AM,50.0,46.4,87,29.96,4.0,Calm,Calm,-,0.02,,Overcast,0,2013-08-09 16:56:00
9:16 AM,50.0,48.2,94,29.96,4.0,Calm,Calm,-,N/A,,Overcast,0,2013-08-09 17:16:00
9:36 AM,51.8,48.2,88,29.96,4.0,Calm,Calm,-,N/A,,Overcast,0,2013-08-09 17:36:00
9:56 AM,51.8,48.2,88,29.95,8.0,Calm,Calm,-,N/A,,Overcast,0,2013-08-09 17:56:00
10:36 AM,51.8,48.2,88,29.95,8.0,Calm,Calm,-,N/A,,Overcast,0,2013-08-09 18:36:00
10:56 AM,53.6,48.2,82,29.95,7.0,Calm,Calm,-,N/A,,Overcast,0,2013-08-09 18:56:00
11:16 AM,53.6,48.2,82,29.95,7.0,SE,3.5,-,N/A,,Overcast,130,2013-08-09 19:16:00
11:36 AM,53.6,48.2,82,29.95,7.0,Calm,Calm,-,N/A,,Overcast,0,2013-08-09 19:36:00
11:56 AM,53.6,48.2,82,29.95,7.0,Calm,Calm,-,N/A,,Overcast,0,2013-08-09 19:56:00
12:16 PM,53.6,48.2,82,29.96,7.0,Calm,Calm,-,N/A,,Overcast,0,2013-08-09 20:16:00
12:36 PM,53.6,48.2,82,29.96,7.0,Calm,Calm,-,N/A,,Overcast,0,2013-08-09 20:36:00
1:56 PM,53.6,48.2,82,29.95,7.0,Calm,Calm,-,N/A,,Overcast,0,2013-08-09 21:56:00
2:16 PM,53.6,50.0,88,29.95,7.0,Calm,Calm,-,N/A,,Overcast,0,2013-08-09 22:16:00
2:56 PM,53.6,48.2,82,29.95,7.0,Calm,Calm,-,0.05,,Overcast,0,2013-08-09 22:56:00
3:36 PM,51.8,48.2,88,29.94,8.0,Calm,Calm,-,0.05,,Overcast,0,2013-08-09 23:36:00
3:56 PM,51.8,48.2,88,29.94,8.0,Calm,Calm,-,0.08,,Overcast,0,2013-08-09 23:56:00
4:16 PM,51.8,48.2,88,29.94,8.0,Calm,Calm,-,0.01,,Overcast,0,2013-08-10 00:16:00
4:36 PM,51.8,48.2,88,29.94,8.0,Calm,Calm,-,0.04,,Overcast,0,2013-08-10 00:36:00
4:56 PM,51.8,48.2,88,29.93,7.0,Calm,Calm,-,0.06,,Overcast,0,2013-08-10 00:56:00
6:16 PM,50.0,48.2,94,29.89,7.0,Calm,Calm,-,N/A,,Overcast,0,2013-08-10 02:16:00
6:36 PM,50.0,46.4,87,29.89,7.0,Calm,Calm,-,N/A,,Overcast,0,2013-08-10 02:36:00
6:56 PM,51.8,48.2,88,29.90,7.0,West,4.6,-,N/A,,Overcast,260,2013-08-10 02:56:00
7:36 PM,51.8,48.2,88,29.90,7.0,Calm,Calm,-,N/A,,Overcast,0,2013-08-10 03:36:00
7:56 PM,51.8,48.2,88,29.90,2.0,Calm,Calm,-,0.09,,Overcast,0,2013-08-10 03:56:00
8:10 PM,51.8,46.4,82,29.91,4.0,Calm,Calm,-,N/A,Rain,Light Rain,0,2013-08-10 04:10:00
8:16 PM,51.8,48.2,88,29.91,4.0,Calm,Calm,-,0.04,,Overcast,0,2013-08-10 04:16:00
9:36 PM,48.2,46.4,93,29.91,5.0,Calm,Calm,-,N/A,,Overcast,0,2013-08-10 05:36:00
9:56 PM,50.0,46.4,87,29.92,7.0,Calm,Calm,-,N/A,,Overcast,0,2013-08-10 05:56:00
10:56 PM,50.0,46.4,87,29.92,1.8,West,5.8,-,0.01,,Overcast,280,2013-08-10 06:56:00
11:16 PM,50.0,46.4,87,29.92,0.8,Calm,Calm,-,N/A,,Overcast,0,2013-08-10 07:16:00
11:36 PM,50.0,46.4,87,29.93,0.5,Calm,Calm,-,N/A,,Overcast,0,2013-08-10 07:36:00
11:56 PM,50.0,46.4,87,29.92,0.8,Calm,Calm,-,N/A,,Overcast,0,2013-08-10 07:56:00